Location: State Camp
(41.2367°N, 77.7828°W)
Time: 04:07:25
(UTC-04:00)

Amateur Radio Satellites - All Passes

Search period start: 20 October 2014 03:37
Search period end: 21 October 2014 03:37
Location: State Camp, 41.2367°N, 77.7828°W

Satellite Date Start Highest point End Downlink Frequencies (MHz)
Time Altitude Azimuth
AO-Echo 20 Oct 03:37:40 03:42:56 69° 286° (WNW) 03:48:12 ?
Oscar 19 20 Oct 03:53:58 03:58:13 27° 294° (WNW) 04:02:28 437.125 CW, 437.150 USB
AO-27 20 Oct 03:57:18 04:02:28 59° 288° (WNW) 04:07:35 436.795 MHz FM
JAS-1B 20 Oct 03:58:59 04:04:56 45° 291° (WNW) 04:11:55 435.800 - 435.900 CW/SSB
OPAL 20 Oct 04:08:56 04:12:28 19° 60° (ENE) 04:15:59 ?
Sapphire 20 Oct 04:32:52 04:36:57 22° 107° (ESE) 04:41:03 437.095 MHz 1200 baud AX-25 AFSK
AO-7 20 Oct 04:39:49 04:47:09 33° 97° (E) 04:54:26 29.400 - 29.500 MHz
Gurwin Techsat 1B 20 Oct 04:40:42 04:45:46 46° 290° (WNW) 04:50:49 435.225 FM
Oscar 16 20 Oct 04:41:15 04:42:31 11° 302° (WNW) 04:43:47 437.025 USB, Beacon 2401.1428
Uribyol 2 20 Oct 04:48:55 04:52:43 21° 297° (WNW) 04:56:30 436.500 FM
ITAMSAT 1 20 Oct 04:53:35 04:57:19 20° 297° (WNW) 05:01:03 435.822 SSB
PCSat 20 Oct 04:54:58 04:59:55 38° 111° (ESE) 05:04:54 145.825 MHz
TMSAT-1 20 Oct 04:55:30 05:00:33 46° 290° (WNW) 05:05:35 436.925 FM
RS-15 20 Oct 05:13:09 05:21:09 22° 13° (NNE) 05:29:18 29.354 - 29.394 USB, Beacon 29.352 USB
Uosat F 20 Oct 05:17:56 05:22:48 46° 99° (E) 05:27:37 435.120 FM
STRAND 1 20 Oct 05:45:29 05:48:13 15° 60° (ENE) 05:50:58 ?
OPAL 20 Oct 05:45:48 05:50:54 58° 257° (WSW) 05:55:59 ?
JAS-2 20 Oct 06:14:40 06:22:03 48° 98° (E) 06:29:34 435.800 - 435.900 CW/SSB, 435.910 FM
Sapphire 20 Oct 06:14:43 06:19:58 52° 304° (NW) 06:25:17 437.095 MHz 1200 baud AX-25 AFSK
AO-7 20 Oct 06:32:10 06:40:13 56° 295° (WNW) 06:48:15 29.400 - 29.500 MHz
PCSat 20 Oct 06:38:31 06:43:22 33° 309° (NW) 06:48:14 145.825 MHz
Hamsat 20 Oct 06:46:22 06:50:28 51° 99° (E) 06:54:33 145.90 MHz
Uosat F 20 Oct 06:57:26 07:01:16 22° 296° (WNW) 07:05:04 435.120 FM
STRAND 1 20 Oct 07:21:39 07:26:46 75° 257° (WSW) 07:31:56 ?
RS-15 20 Oct 07:26:31 07:37:12 49° 45° (NE) 07:48:14 29.354 - 29.394 USB, Beacon 29.352 USB
JAS-2 20 Oct 07:59:58 08:06:49 39° 294° (WNW) 08:13:54 435.800 - 435.900 CW/SSB, 435.910 FM
Sapphire 20 Oct 08:03:32 08:04:43 11° 325° (NW) 08:05:54 437.095 MHz 1200 baud AX-25 AFSK
Hamsat 20 Oct 08:23:47 08:25:59 14° 296° (WNW) 08:28:11 145.90 MHz
AO-7 20 Oct 08:27:53 08:31:12 13° 316° (NW) 08:34:31 29.400 - 29.500 MHz
SO-67 20 Oct 08:30:18 08:33:44 66° 284° (WNW) 08:37:09 435.3500 MHz FM
HO-68 20 Oct 09:06:43 09:12:18 24° 93° (E) 09:17:50 435.675 MHz FM
Saudisat 1A 20 Oct 09:30:39 09:35:02 89° 303° (WNW) 09:39:28 436.775 MHz
RS-15 20 Oct 09:39:02 09:49:46 55° 248° (WSW) 10:00:59 29.354 - 29.394 USB, Beacon 29.352 USB
Oscar 11 20 Oct 10:19:00 10:22:45 28° 96° (E) 10:26:27 145.825 FM, Beacon 2401.500 USB
MaSat-1 20 Oct 10:31:46 10:34:19 33° 59° (ENE) 10:36:39 437.345 MHz
HO-68 20 Oct 10:53:22 11:00:29 65° 291° (WNW) 11:07:34 435.675 MHz FM
ZACube-1 20 Oct 10:53:47 10:57:31 28° 95° (E) 11:01:09 437.345 MHz
UKube-1 20 Oct 11:08:23 11:12:46 74° 285° (WNW) 11:17:07 145.840 MHz, 145.915 MHz
Saudisat 1A 20 Oct 11:13:00 11:15:16 14° 322° (NW) 11:17:32 436.775 MHz
PANSAT 20 Oct 11:34:27 11:35:57 12° 177° (S) 11:37:27 not established
FUNcube-1 20 Oct 11:39:23 11:43:44 87° 283° (WNW) 11:47:56 145.950 - 145.970 MHz USB
KITSAT 1 20 Oct 11:42:40 11:45:06 12° 98° (E) 11:47:31 435.175 FM
Oscar 11 20 Oct 11:55:17 11:58:49 25° 292° (WNW) 12:02:20 145.825 FM, Beacon 2401.500 USB
ZACube-1 20 Oct 12:30:18 12:33:48 25° 292° (WNW) 12:37:14 437.345 MHz
Oscar 16 20 Oct 12:38:36 12:42:06 19° 62° (ENE) 12:45:35 437.025 USB, Beacon 2401.1428
HO-68 20 Oct 12:43:48 12:46:50 13° 310° (NW) 12:49:53 435.675 MHz FM
Uribyol 2 20 Oct 12:51:54 12:52:57 11° 57° (ENE) 12:53:59 436.500 FM
JAS-1B 20 Oct 12:56:14 13:00:53 24° 64° (ENE) 13:05:18 435.800 - 435.900 CW/SSB
ITAMSAT 1 20 Oct 12:56:17 12:57:38 11° 57° (ENE) 12:59:00 435.822 SSB
AO-Echo 20 Oct 13:13:56 13:17:14 19° 63° (ENE) 13:20:36 ?
Sapphire 20 Oct 13:19:57 13:24:05 22° 45° (NE) 13:28:12 437.095 MHz 1200 baud AX-25 AFSK
KITSAT 1 20 Oct 13:30:59 13:38:58 68° 116° (ESE) 13:46:59 435.175 FM
Oscar 19 20 Oct 13:31:04 13:36:05 53° 72° (ENE) 13:41:06 437.125 CW, 437.150 USB
AO-27 20 Oct 13:37:07 13:41:24 27° 65° (ENE) 13:45:43 436.795 MHz FM
PCSat 20 Oct 13:42:41 13:47:33 32° 51° (NE) 13:52:24 145.825 MHz
AO-7 20 Oct 13:54:45 13:55:45 10° 41° (NE) 13:56:46 29.400 - 29.500 MHz
SO-50 20 Oct 14:02:42 14:06:44 34° 115° (ESE) 14:10:53 436.795 FM
Oscar 16 20 Oct 14:15:54 14:20:59 57° 259° (W) 14:26:05 437.025 USB, Beacon 2401.1428
Gurwin Techsat 1B 20 Oct 14:22:25 14:27:11 35° 68° (ENE) 14:31:59 435.225 FM
Uribyol 2 20 Oct 14:26:19 14:31:31 78° 74° (ENE) 14:36:46 436.500 FM
ITAMSAT 1 20 Oct 14:31:04 14:36:15 81° 75° (ENE) 14:41:30 435.822 SSB
TMSAT-1 20 Oct 14:36:54 14:41:40 35° 68° (ENE) 14:46:28 436.925 FM
JAS-1B 20 Oct 14:45:20 14:51:20 47° 260° (W) 14:56:51 435.800 - 435.900 CW/SSB
ISS 20 Oct 14:50:25 14:53:40 53° 140° (SE) 14:56:56 145.800 FM
AO-Echo 20 Oct 14:50:52 14:55:33 52° 260° (W) 15:00:25 ?
Sapphire 20 Oct 15:02:35 15:07:59 65° 245° (WSW) 15:13:20 437.095 MHz 1200 baud AX-25 AFSK
Oscar 19 20 Oct 15:12:13 15:15:43 18° 268° (W) 15:19:15 437.125 CW, 437.150 USB
AO-27 20 Oct 15:15:53 15:20:43 39° 262° (W) 15:25:36 436.795 MHz FM
PCSat 20 Oct 15:26:01 15:31:00 38° 249° (WSW) 15:35:57 145.825 MHz
KITSAT 1 20 Oct 15:27:54 15:34:58 32° 317° (NW) 15:42:05 435.175 FM
AO-7 20 Oct 15:38:43 15:46:27 46° 62° (ENE) 15:54:11 29.400 - 29.500 MHz
SO-50 20 Oct 15:43:21 15:47:18 29° 313° (NW) 15:51:23 436.795 FM
UOSAT-12 20 Oct 15:52:42 15:57:01 40° 116° (ESE) 16:01:25 437.025 FM, 437.400 FM
Gurwin Techsat 1B 20 Oct 16:02:35 16:07:10 29° 265° (W) 16:11:47 435.225 FM
Uribyol 2 20 Oct 16:09:25 16:11:34 12° 271° (W) 16:13:43 436.500 FM
ITAMSAT 1 20 Oct 16:14:28 16:16:21 12° 271° (W) 16:18:15 435.822 SSB
TMSAT-1 20 Oct 16:17:02 16:21:36 29° 265° (W) 16:26:12 436.925 FM
Saudisat 1A 20 Oct 16:19:43 16:21:24 12° 36° (NE) 16:23:04 436.775 MHz
Oscar 10/S400 20 Oct 16:25:13 16:43:11 53° 164° (SSE) 17:31:33 145.825 - 145.975 CW/USB, Beacon 145.810 USB
ISS 20 Oct 16:27:42 16:30:33 25° 338° (NNW) 16:33:25 145.800 FM
JAS-2 20 Oct 16:29:19 16:33:14 19° 57° (ENE) 16:37:25 435.800 - 435.900 CW/SSB, 435.910 FM
Uosat F 20 Oct 16:31:06 16:36:02 64° 73° (ENE) 16:41:02 435.120 FM
KITSAT 1 20 Oct 17:30:22 17:33:28 12° 345° (NNW) 17:36:35 435.175 FM
AO-7 20 Oct 17:31:36 17:39:15 41° 261° (W) 17:46:58 29.400 - 29.500 MHz
UOSAT-12 20 Oct 17:33:19 17:37:17 27° 314° (NW) 17:41:19 437.025 FM, 437.400 FM
Hamsat 20 Oct 17:39:39 17:43:32 36° 71° (ENE) 17:47:24 145.90 MHz
OPAL 20 Oct 17:55:58 18:00:31 35° 99° (E) 18:05:01 ?
Saudisat 1A 20 Oct 17:57:20 18:01:46 72° 56° (NE) 18:06:10 436.775 MHz
ISS 20 Oct 18:06:17 18:08:08 14° 358° (N) 18:09:58 145.800 FM
JAS-2 20 Oct 18:11:45 18:17:25 74° 258° (WSW) 18:23:53 435.800 - 435.900 CW/SSB, 435.910 FM
Uosat F 20 Oct 18:12:30 18:15:15 15° 269° (W) 18:18:01 435.120 FM
SO-67 20 Oct 19:02:51 19:06:00 35° 73° (ENE) 19:09:11 435.3500 MHz FM
Hamsat 20 Oct 19:16:38 19:19:36 18° 267° (W) 19:22:33 145.90 MHz
KITSAT 1 20 Oct 19:29:55 19:33:20 13° 17° (NNE) 19:36:45 435.175 FM
STRAND 1 20 Oct 19:32:31 19:37:18 37° 98° (E) 19:42:02 ?
OPAL 20 Oct 19:35:06 19:39:16 27° 296° (WNW) 19:43:23 ?
HO-68 20 Oct 19:36:44 19:41:31 20° 55° (NE) 19:46:18 435.675 MHz FM
Saudisat 1A 20 Oct 19:39:07 19:40:44 12° 252° (WSW) 19:42:20 436.775 MHz
ISS 20 Oct 19:43:11 19:45:47 20° 18° (NNE) 19:48:23 145.800 FM
SO-67 20 Oct 20:37:43 20:39:08 12° 268° (W) 20:40:34 435.3500 MHz FM
STRAND 1 20 Oct 21:12:01 21:16:18 27° 294° (WNW) 21:20:34 ?
Oscar 11 20 Oct 21:14:21 21:17:47 23° 68° (ENE) 21:21:13 145.825 FM, Beacon 2401.500 USB
ISS 20 Oct 21:19:30 21:22:51 88° 216° (SW) 21:26:12 145.800 FM
HO-68 20 Oct 21:21:09 21:28:19 86° 254° (WSW) 21:35:33 435.675 MHz FM
KITSAT 1 20 Oct 21:24:24 21:31:41 35° 45° (NE) 21:38:54 435.175 FM
ZACube-1 20 Oct 21:50:07 21:53:54 26° 68° (ENE) 21:57:40 437.345 MHz
AO-40 20 Oct 21:51:58 23:42:54 26° 219° (SW) 03:19:29 Beacon 2401.320
RS-15 20 Oct 21:53:10 22:01:24 25° 102° (ESE) 22:09:32 29.354 - 29.394 USB, Beacon 29.352 USB
UKube-1 20 Oct 22:03:31 22:07:52 86° 257° (WSW) 22:12:16 145.840 MHz, 145.915 MHz
SO-50 20 Oct 22:33:51 22:38:17 35° 49° (NE) 22:42:45 436.795 FM
FUNcube-1 20 Oct 22:35:03 22:39:39 75° 75° (ENE) 22:44:13 145.950 - 145.970 MHz USB
Oscar 11 20 Oct 22:49:57 22:53:48 31° 263° (W) 22:57:40 145.825 FM, Beacon 2401.500 USB
HO-68 20 Oct 23:13:16 23:16:57 15° 271° (W) 23:20:40 435.675 MHz FM
KITSAT 1 20 Oct 23:19:36 23:27:31 62° 246° (WSW) 23:35:24 435.175 FM
ZACube-1 20 Oct 23:26:02 23:30:09 32° 264° (W) 23:34:16 437.345 MHz
RS-15 21 Oct 00:01:22 00:12:24 83° 303° (WNW) 00:23:25 29.354 - 29.394 USB, Beacon 29.352 USB
MaSat-1 21 Oct 00:10:21 00:12:58 16° 106° (ESE) 00:15:27 437.345 MHz
SO-50 21 Oct 00:14:31 00:18:47 31° 246° (WSW) 00:23:05 436.795 FM
FUNcube-1 21 Oct 00:15:30 00:16:29 11° 271° (W) 00:17:29 145.950 - 145.970 MHz USB
UOSAT-12 21 Oct 00:22:12 00:26:36 37° 49° (NE) 00:30:55 437.025 FM, 437.400 FM
Oscar 19 21 Oct 01:43:41 01:47:13 19° 92° (E) 01:50:44 437.125 CW, 437.150 USB
MaSat-1 21 Oct 01:44:23 01:48:29 45° 299° (WNW) 01:52:14 437.345 MHz
UOSAT-12 21 Oct 02:02:38 02:06:36 27° 247° (WSW) 02:10:30 437.025 FM, 437.400 FM
RS-15 21 Oct 02:17:26 02:26:37 30° 330° (NNW) 02:35:55 29.354 - 29.394 USB, Beacon 29.352 USB
JAS-1B 21 Oct 02:27:10 02:33:21 44° 100° (E) 02:40:36 435.800 - 435.900 CW/SSB
Oscar 16 21 Oct 02:27:36 02:32:36 50° 100° (E) 02:37:33 437.025 USB, Beacon 2401.1428
Uribyol 2 21 Oct 02:39:39 02:44:05 28° 95° (E) 02:48:29 436.500 FM
Gurwin Techsat 1B 21 Oct 02:40:06 02:42:41 14° 89° (E) 02:45:15 435.225 FM
ITAMSAT 1 21 Oct 02:44:29 02:49:00 29° 96° (E) 02:53:28 435.822 SSB
TMSAT-1 21 Oct 02:54:14 02:56:48 14° 89° (E) 02:59:21 436.925 FM
AO-Echo 21 Oct 02:57:38 03:02:48 52° 100° (E) 03:07:59 ?
Oscar 19 21 Oct 03:21:54 03:26:51 52° 289° (WNW) 03:31:47 437.125 CW, 437.150 USB
